Overview Statistics Trail Chart Weather Telemetry Raw packets
 

This is the latest recevied weather packets stored in our database for station/object KC4JIR. If no packets are shown the sender has not sent any weather packets the latest 10 day(s).

<< 20 21 22 23 24 25 26 >>
Time Temp. Humidity Pressure Rain* Wind** Luminosity Snow
1788480065 28.89° C 78% 1012.4 hPa 0 mm - 0 W/m² -
1788479765 29.44° C 79% 1012.6 hPa 0 mm - 0 W/m² -
1788479461 29.44° C 77% 1012.6 hPa 0 mm - 2 W/m² -
1788479156 30° C 77% 1012.4 hPa 0 mm - 3 W/m² -
1788478851 30° C 77% 1012.6 hPa 0 mm - 5 W/m² -
1788478547 30° C 75% 1012.5 hPa 0 mm - 9 W/m² -
1788478243 31.11° C 76% 1012.4 hPa 0 mm - 11 W/m² -
1788477938 31.11° C 72% 1012.4 hPa 0 mm - 17 W/m² -
1788477632 31.11° C 72% 1012.3 hPa 0 mm - 17 W/m² -
1788477327 31.11° C 69% 1012.3 hPa 0 mm - 21 W/m² -
1788477021 31.11° C 69% 1012.4 hPa 0 mm - 21 W/m² -
1788476718 31.67° C 69% 1011.9 hPa 0 mm - 24 W/m² -
1788476416 31.67° C 69% 1012.1 hPa 0 mm - 25 W/m² -
1788476109 32.22° C 71% 1012 hPa 0 mm - 28 W/m² -
1788475805 32.22° C 69% 1012.4 hPa 0 mm - 31 W/m² -
1788475500 33.33° C 70% 1012.1 hPa 0 mm - 33 W/m² -
1788475196 33.33° C 67% 1012.2 hPa 0 mm - 36 W/m² -
1788474895 33.33° C 66% 1011.9 hPa 0 mm - 37 W/m² -
1788474595 34.44° C 63% 1012 hPa 0 mm - 39 W/m² -
1788474295 34.44° C 62% 1011.9 hPa 0 mm - 42 W/m² -
1788473994 34.44° C 63% 1012.1 hPa 0 mm - 132 W/m² -
1788473690 34.44° C 63% 1011.9 hPa 0 mm - 53 W/m² -
1788473387 35° C 56% 1011.7 hPa 0 mm - 159 W/m² -
1788473082 35° C 57% 1012.1 hPa 0 mm - 184 W/m² -
1788472779 35° C 55% 1011.9 hPa 0 mm - 55 W/m² -

* Rain latest hour (hover to see other rain measurements)
** Current wind speed in m/s (hover to see current wind gust speed)